Date,TemperatureHighF,TemperatureAvgF,TemperatureLowF,DewpointHighF,DewpointAvgF,DewpointLowF,HumidityHigh,HumidityAvg,HumidityLow,PressureMaxIn,PressureMinIn,WindSpeedMaxMPH,WindSpeedAvgMPH,GustSpeedMaxMPH,PrecipitationSumIn
2012-1-1,42,34,26,26,14,7,61,45,28,30.53,29.97,17,7,27,0.00
2012-1-2,35,24,16,8,5,-1,59,43,31,30.59,30.42,10,4,17,0.00
2012-1-3,48,32,17,24,14,1,58,47,38,30.42,29.88,15,5,19,0.00
2012-1-4,55,43,30,27,24,20,67,47,33,30.24,29.97,10,4,15,0.00
2012-1-5,66,47,32,31,25,20,64,44,25,30.06,29.68,9,4,12,0.00
2012-1-6,50,42,34,29,23,16,68,47,36,30.03,29.65,7,3,12,0.00
2012-1-7,42,32,23,22,18,13,73,57,43,30.24,30.03,4,1,5,0.00
2012-1-8,48,34,26,26,21,17,78,61,37,30.30,30.21,5,1,8,0.00
2012-1-9,52,37,27,26,23,18,83,59,33,30.21,29.97,9,4,12,0.00
2012-1-10,62,42,27,33,25,18,81,54,32,30.00,29.65,7,3,9,0.00
2012-1-11,41,31,19,32,20,4,87,64,48,29.97,29.56,13,6,24,0.00
2012-1-12,19,13,9,5,0,-4,64,56,52,30.03,29.91,12,6,20,0.00
2012-1-13,29,18,6,8,1,-4,61,48,32,30.09,29.83,8,3,13,0.00
2012-1-14,47,32,23,24,13,7,61,46,31,30.12,29.80,9,2,13,0.00
2012-1-15,56,41,29,25,19,10,52,41,29,30.06,29.65,13,5,20,0.00
2012-1-16,40,32,21,23,16,7,69,53,42,29.88,29.65,8,4,15,0.00
2012-1-17,25,17,10,12,4,-4,76,57,43,30.30,29.85,11,4,18,0.00
2012-1-18,37,21,9,20,7,-6,69,55,44,30.24,29.74,13,6,17,0.00
2012-1-19,17,10,4,1,-6,-12,56,48,38,30.15,29.94,8,4,14,0.00
2012-1-20,26,14,8,5,-4,-12,51,43,39,30.21,29.85,8,4,14,0.00
2012-1-21,23,16,8,18,5,-6,79,62,51,30.21,29.62,14,6,20,0.00
2012-1-22,45,33,23,36,27,17,98,80,53,29.65,29.35,15,6,23,0.00
2012-1-23,32,27,19,26,19,14,95,72,58,30.03,29.59,12,4,18,0.00
2012-1-24,34,25,11,28,19,8,91,79,65,30.21,30.03,7,2,10,0.00
2012-1-25,41,33,26,30,27,23,98,79,60,30.18,29.85,8,2,11,0.00
2012-1-26,49,36,26,29,24,15,94,65,39,29.91,29.85,13,3,20,0.00
2012-1-27,43,33,27,27,20,13,79,61,44,30.18,29.83,10,3,17,0.00
2012-1-28,47,32,21,16,12,5,73,45,27,30.21,30.09,13,6,23,0.00
2012-1-29,39,34,22,16,13,6,58,42,37,30.18,29.88,8,4,12,0.00
2012-1-30,69,51,37,32,23,15,51,34,22,29.88,29.68,12,7,18,0.00
2012-1-31,62,46,34,33,28,21,74,51,31,30.03,29.71,12,4,17,0.00
2012-2-1,60,42,29,26,21,16,72,47,26,30.12,30.00,7,2,9,0.00
2012-2-2,56,40,26,29,23,14,71,50,35,30.21,30.09,7,2,10,0.00
2012-2-3,48,41,33,39,33,26,98,75,45,30.24,30.09,12,4,21,0.00
2012-2-4,33,31,30,33,31,29,98,98,97,30.27,30.12,7,2,14,0.00
2012-2-5,30,30,30,29,29,29,97,97,97,30.27,30.27,4,3,4,0.00
2012-2-6,36,30,16,29,28,8,98,92,68,30.36,30.09,7,3,10,0.00
2012-2-7,32,29,25,28,24,18,88,82,76,30.50,30.12,7,4,13,0.00
2012-2-8,27,24,21,19,15,10,82,70,54,30.50,30.30,8,2,10,0.00
2012-2-9,35,29,24,27,24,18,91,81,66,30.33,29.97,12,4,15,0.00
2012-2-10,28,16,4,22,1,-13,79,53,44,30.56,30.06,11,5,17,0.00
2012-2-11,19,6,-3,-1,-11,-19,46,45,38,30.71,30.53,7,3,9,0.00
2012-2-12,29,14,-3,12,-2,-19,54,46,42,30.71,30.00,9,4,14,0.00
2012-2-13,31,28,24,31,26,10,98,94,47,30.00,29.68,12,4,17,0.00
2012-2-14,39,28,15,33,24,13,98,85,60,29.85,29.74,7,2,10,0.00
2012-2-15,42,34,26,33,29,24,98,82,61,30.09,29.80,7,2,10,0.00
2012-2-16,43,33,23,26,22,18,85,65,42,30.27,30.03,7,3,9,0.00
2012-2-17,46,36,27,25,22,17,74,58,40,30.21,30.00,12,4,15,0.00
2012-2-18,44,30,20,20,16,13,81,59,37,30.24,30.09,6,1,7,0.00
2012-2-19,43,32,20,26,21,13,83,63,49,30.15,29.91,9,3,13,0.00
2012-2-20,41,38,34,40,32,21,98,82,56,29.94,29.56,13,7,20,0.10
2012-2-21,48,38,32,35,28,24,98,68,41,29.85,29.62,11,4,15,0.00
2012-2-22,56,43,34,37,30,24,76,60,40,29.62,29.38,9,3,12,0.00
2012-2-23,44,38,30,42,34,28,98,84,73,29.80,29.26,14,4,24,0.00
2012-2-24,42,32,23,32,22,11,98,68,40,30.24,29.80,11,5,17,0.00
2012-2-25,37,28,14,21,14,6,77,56,44,30.30,29.71,14,6,20,0.00
2012-2-26,54,42,27,27,22,15,61,46,33,30.24,29.71,14,6,19,0.00
2012-2-27,41,30,18,19,13,8,68,51,37,30.50,30.21,9,4,13,0.00
2012-2-28,54,42,35,52,35,17,98,77,46,30.21,29.32,22,7,26,0.30
2012-2-29,44,34,28,36,23,18,84,64,49,29.83,29.38,22,10,31,0.20
2012-3-1,54,36,23,32,27,20,95,73,41,29.85,29.65,8,2,13,0.00
2012-3-2,49,37,31,30,23,16,86,60,32,29.91,29.68,11,5,17,0.00
2012-3-3,43,32,24,19,16,13,71,52,37,29.94,29.85,11,4,17,0.00
2012-3-4,53,35,24,32,21,13,80,59,36,30.15,29.80,16,4,25,0.00
2012-3-5,60,40,22,26,22,17,91,54,27,30.21,29.77,15,5,22,0.00
2012-3-6,70,60,48,47,35,25,63,40,28,29.77,29.56,16,8,22,0.00
2012-3-7,60,46,32,49,35,21,92,66,52,30.09,29.50,15,7,24,0.00
2012-3-8,54,39,24,22,17,10,77,45,23,30.39,30.09,8,4,15,0.00
2012-3-9,64,46,28,26,19,12,60,37,21,30.53,30.21,12,4,17,0.00
2012-3-10,69,54,40,27,23,20,49,32,17,30.24,30.00,16,8,24,0.00
2012-3-11,49,47,44,46,38,23,98,75,40,30.06,29.68,8,4,13,0.10
2012-3-12,69,53,43,47,44,41,98,76,39,29.94,29.65,11,4,15,0.20
2012-3-13,81,62,46,49,42,35,89,54,21,29.97,29.74,11,4,16,0.00
2012-3-14,82,66,57,60,47,32,97,56,22,29.88,29.74,10,3,17,0.00
2012-3-15,77,59,44,61,48,33,98,69,47,30.00,29.85,6,2,8,0.00
2012-3-16,81,66,52,62,55,49,98,72,33,29.91,29.74,11,4,17,0.00
2012-3-17,83,70,62,61,58,52,92,68,37,29.80,29.62,15,7,26,0.00
2012-3-18,82,70,63,59,57,53,84,64,38,29.74,29.62,17,9,25,0.00
2012-3-19,72,63,56,59,55,45,94,77,40,29.71,29.50,14,6,28,0.10
2012-3-20,58,56,54,56,54,53,98,95,87,29.85,29.68,7,3,10,0.30
2012-3-21,61,58,54,60,57,54,98,96,89,29.94,29.83,8,2,12,0.30
2012-3-22,66,58,50,59,48,40,98,74,38,29.97,29.85,8,3,13,0.10
2012-3-23,72,58,47,49,44,38,96,63,33,29.97,29.85,6,1,9,0.00
2012-3-24,80,63,46,47,41,35,85,50,23,30.00,29.88,6,1,7,0.08
2012-3-25,81,64,49,54,44,39,80,50,27,30.09,29.91,7,2,10,0.00
2012-3-26,83,69,59,53,48,41,66,48,31,29.97,29.71,17,7,27,0.00
2012-3-27,78,68,57,54,41,27,76,41,20,29.91,29.71,14,6,18,0.00
2012-3-28,75,62,46,43,37,31,73,43,25,30.03,29.85,7,3,11,0.00
2012-3-29,67,61,56,60,52,36,93,74,34,29.88,29.62,11,5,17,0.00
2012-3-30,78,63,49,60,50,37,98,68,25,29.83,29.68,8,3,14,0.00
2012-3-31,90,71,55,58,46,36,82,49,15,29.74,29.56,17,5,22,0.00
2012-4-1,89,73,58,62,55,46,90,57,28,29.62,29.38,14,4,17,0.00
2012-4-2,90,73,58,62,54,47,87,55,28,29.77,29.38,10,5,16,0.00
2012-4-3,70,58,50,52,44,39,82,61,40,29.97,29.74,8,4,13,0.00
2012-4-4,61,58,55,45,40,36,60,52,46,29.91,29.77,6,3,10,0.00
2012-4-5,68,57,49,46,36,28,79,48,28,30.06,29.83,8,3,13,0.00
2012-4-6,66,54,40,34,31,27,65,43,28,30.15,29.91,12,6,16,0.00
2012-4-7,64,54,42,50,33,17,98,49,24,30.33,29.94,11,4,20,0.04
2012-4-8,73,55,36,33,26,18,58,34,22,30.33,30.06,16,5,22,0.00
2012-4-9,69,55,40,30,22,16,42,29,22,30.21,30.09,8,2,12,0.00
2012-4-10,63,49,34,26,19,12,56,32,22,30.27,30.15,7,2,12,0.00
2012-4-11,58,46,33,25,18,12,45,33,25,30.36,30.12,7,2,10,0.00
2012-4-12,51,47,40,47,34,18,92,62,38,30.15,29.83,12,6,20,0.34
2012-4-13,76,60,48,56,46,39,93,64,29,29.83,29.65,16,7,22,0.43
2012-4-14,63,56,48,62,53,40,98,89,58,29.80,29.41,12,3,17,1.24
2012-4-15,70,60,46,60,49,32,98,71,26,29.47,29.26,20,8,30,0.67
2012-4-16,59,50,43,41,34,28,82,54,36,30.18,29.47,17,5,25,0.00
2012-4-17,73,56,39,49,40,30,96,60,33,30.24,29.97,12,5,20,0.03
2012-4-18,74,64,53,52,46,41,82,53,36,30.03,29.80,12,3,15,0.00
2012-4-19,64,54,44,56,48,37,96,79,57,29.91,29.68,7,4,14,0.09
2012-4-20,60,49,38,38,32,27,85,55,33,30.09,29.91,8,3,14,0.00
2012-4-21,73,56,43,42,32,25,60,41,22,30.03,29.85,13,5,20,0.00
2012-4-22,62,52,43,37,34,29,73,51,36,30.24,30.00,9,4,17,0.00
2012-4-23,70,54,36,41,33,29,98,52,24,30.24,29.85,7,2,10,0.00
2012-4-24,85,66,49,50,43,34,71,46,26,29.85,29.53,8,2,9,0.00
2012-4-25,90,74,59,54,44,33,71,38,18,29.77,29.44,10,3,15,0.00
2012-4-26,73,65,57,47,40,35,59,41,32,30.00,29.77,9,3,13,0.00
2012-4-27,63,54,47,44,38,33,86,57,36,29.97,29.59,16,8,26,0.37
2012-4-28,63,53,45,49,45,41,97,75,51,30.09,29.68,7,3,10,0.13
2012-4-29,51,49,47,50,48,43,98,94,78,30.06,29.91,7,2,11,0.63
2012-4-30,70,54,50,54,49,46,94,86,43,30.00,29.77,8,2,12,0.00
2012-5-1,83,70,57,64,58,54,98,70,41,29.80,29.53,12,6,18,0.00
2012-5-2,83,72,63,68,64,56,95,77,52,29.71,29.53,12,4,15,0.60
2012-5-3,84,72,61,68,63,58,95,73,46,29.83,29.65,14,3,17,0.54
2012-5-4,88,76,67,70,66,59,97,75,40,29.80,29.68,9,3,13,0.00
2012-5-5,90,80,71,72,67,57,95,67,34,29.80,29.65,10,5,15,0.00
2012-5-6,77,67,60,65,58,50,93,73,52,30.00,29.71,13,4,19,1.06
2012-5-7,70,61,52,50,39,33,72,47,29,30.09,29.97,10,4,14,0.00
2012-5-8,67,57,46,40,37,32,77,49,31,30.06,29.97,10,3,17,0.00
2012-5-9,69,57,43,44,39,35,87,55,32,30.09,29.88,7,2,10,0.00
2012-5-10,84,69,53,50,44,37,61,43,25,29.91,29.71,11,5,17,0.00
2012-5-11,74,65,53,50,42,32,60,44,32,30.21,29.77,10,4,15,0.00
2012-5-12,71,61,50,40,36,32,61,41,27,30.33,30.21,7,2,10,0.00
2012-5-13,76,66,51,42,37,33,58,35,23,30.27,30.09,5,1,7,0.00
2012-5-14,82,68,51,47,38,30,72,37,20,30.12,29.91,9,2,12,0.00
2012-5-15,86,72,60,50,40,28,65,34,17,30.03,29.91,9,5,13,0.00
2012-5-16,78,66,48,41,34,27,51,32,21,30.12,29.91,6,2,9,0.00
2012-5-17,89,75,61,52,43,36,46,34,19,29.97,29.71,14,7,24,0.00
2012-5-18,90,78,67,55,50,45,55,40,24,29.80,29.62,14,7,22,0.00
2012-5-19,84,74,61,61,56,50,96,54,40,29.83,29.62,16,6,24,0.25
2012-5-20,72,62,54,61,47,36,96,62,33,30.21,29.83,10,4,15,0.00
2012-5-21,77,63,47,44,39,35,84,45,23,30.24,30.03,6,2,12,0.00
2012-5-22,85,72,59,46,40,36,48,34,22,30.03,29.65,15,6,24,0.00
2012-5-23,92,77,66,66,51,40,89,43,27,29.65,29.32,16,7,30,0.04
2012-5-24,73,65,58,67,55,49,94,73,47,29.74,29.38,8,3,13,0.00
2012-5-25,75,64,55,60,54,49,97,72,44,29.94,29.74,9,3,14,0.00
2012-5-26,96,79,64,72,62,-8,80,59,29,30.71,29.68,14,6,22,0.00
2012-5-27,93,82,70,67,59,52,68,48,29,29.74,29.50,15,9,23,0.00
2012-5-28,80,70,62,65,53,39,98,61,25,29.85,29.62,10,3,16,0.70
2012-5-29,77,66,56,52,40,36,74,41,25,30.00,29.80,10,3,20,0.00
2012-5-30,67,60,51,54,44,37,87,57,38,30.00,29.80,6,2,10,0.13
2012-5-31,61,54,48,51,45,37,91,72,48,30.00,29.85,8,3,14,0.15
2012-6-1,66,56,44,52,43,36,94,65,36,30.03,29.83,9,3,12,0.00
2012-6-2,82,67,51,55,44,35,90,50,21,29.85,29.74,8,3,14,0.00
2012-6-3,88,75,61,61,51,41,55,43,32,29.83,29.68,10,4,14,0.00
2012-6-4,90,79,68,59,54,48,71,45,24,29.91,29.74,7,2,10,0.00
2012-6-5,87,76,62,60,53,46,80,47,30,29.94,29.80,7,2,9,0.00
2012-6-6,86,76,62,55,51,47,66,43,30,29.97,29.83,7,3,10,0.00
2012-6-7,86,75,64,56,51,48,65,44,30,30.06,29.94,10,3,12,0.00
2012-6-8,88,77,65,55,48,43,56,38,22,30.00,29.74,12,5,16,0.00
2012-6-9,91,77,65,55,50,45,54,40,23,29.80,29.56,12,7,17,0.00
2012-6-10,90,79,66,64,59,55,91,52,40,29.74,29.56,12,5,19,0.16
2012-6-11,82,70,59,63,49,39,97,54,23,30.03,29.74,7,3,12,0.00
2012-6-12,79,68,56,46,41,36,52,39,27,30.21,29.94,6,2,12,0.00
2012-6-13,85,74,63,52,47,43,52,39,29,30.06,29.77,11,5,17,0.00
2012-6-14,91,76,64,68,61,52,92,62,37,29.91,29.68,17,6,29,1.80
2012-6-15,74,67,64,66,62,56,97,85,63,29.91,29.80,7,2,10,1.44
2012-6-16,82,69,61,70,61,56,98,78,46,29.97,29.85,6,1,10,1.40
2012-6-17,90,77,64,70,63,56,94,65,40,29.94,29.50,14,5,20,0.00
2012-6-18,94,84,76,66,63,56,64,51,37,29.56,29.44,16,7,23,0.00
2012-6-19,91,83,75,68,64,60,68,53,39,29.65,29.53,16,9,23,0.00
2012-6-20,82,74,61,70,64,58,96,72,56,29.91,29.62,12,6,18,0.76
2012-6-21,81,69,58,59,52,45,98,60,30,30.06,29.91,7,2,13,0.00
2012-6-22,83,73,61,57,52,48,75,50,30,30.03,29.85,7,3,14,0.00
2012-6-23,85,73,62,67,60,52,89,65,46,29.94,29.71,29,7,40,0.29
2012-6-24,91,82,72,71,68,65,84,64,44,29.88,29.74,9,4,13,0.00
2012-6-25,86,79,73,69,66,59,80,66,52,29.94,29.85,10,5,15,0.13
2012-6-26,87,76,67,66,57,47,65,52,44,29.88,29.62,11,6,18,0.00
2012-6-27,100,88,75,72,66,60,75,52,30,29.71,29.59,11,6,15,0.00
2012-6-28,94,86,75,77,73,62,90,67,51,29.83,29.71,9,2,13,0.00
2012-6-29,90,82,77,76,66,57,87,59,33,29.85,29.71,8,3,13,0.04
2012-6-30,92,82,70,71,66,60,81,60,42,29.83,29.68,6,2,11,0.00
2012-7-1,93,83,72,71,64,59,76,55,37,29.88,29.77,8,3,13,0.00
2012-7-2,94,84,73,68,63,57,68,50,30,29.88,29.77,10,4,15,0.00
2012-7-3,96,86,77,68,63,58,62,48,30,29.83,29.71,9,5,14,0.00
2012-7-4,97,87,62,65,60,44,53,40,29,29.94,29.71,11,5,17,0.00
2012-7-5,100,90,78,66,60,0,100,39,25,29.88,29.74,13,4,13,0.00
2012-7-6,100,94,74,69,60,58,83,34,26,29.91,29.85,9,5,14,0.00
2012-7-7,99,86,73,69,65,58,84,54,27,30.03,29.85,7,4,10,0.00
2012-7-8,83,78,70,63,58,54,68,51,44,30.09,29.97,7,4,10,0.00
2012-7-9,90,82,68,60,56,50,67,42,28,30.09,29.97,7,3,9,0.00
2012-7-10,87,77,65,61,52,47,71,45,28,30.09,30.00,8,2,10,0.00
2012-7-11,88,77,64,60,54,50,76,47,29,30.06,29.94,6,1,7,0.00
2012-7-12,94,81,68,61,58,52,75,49,25,29.97,29.85,7,2,10,0.00
2012-7-13,95,83,73,65,60,56,73,49,29,29.97,29.85,7,2,9,0.00
2012-7-14,98,83,70,63,59,47,76,47,18,29.97,29.88,7,2,12,0.00
2012-7-15,97,84,71,65,61,55,79,48,26,29.97,29.85,9,3,15,0.00
2012-7-16,95,84,71,62,57,52,58,41,28,29.88,29.74,10,4,14,0.00
2012-7-17,99,86,74,63,60,54,63,43,23,29.80,29.71,9,4,13,0.00
2012-7-18,98,88,77,64,59,54,53,39,27,29.83,29.71,8,3,13,0.00
2012-7-19,100,87,74,74,63,51,88,49,22,29.97,29.83,5,2,8,0.00
2012-7-20,95,84,72,65,61,55,74,48,28,30.03,29.94,7,3,10,0.00
2012-7-21,96,82,72,60,57,54,64,43,26,30.03,29.85,9,4,14,0.00
2012-7-22,103,88,72,60,52,46,57,33,15,29.97,29.85,14,5,17,0.00
2012-7-23,103,90,74,59,53,47,54,30,16,29.94,29.83,9,3,14,0.00
2012-7-24,102,90,80,60,56,49,43,32,18,29.85,29.68,11,5,14,0.00
2012-7-25,103,88,74,68,58,54,83,37,20,29.71,29.56,13,6,18,0.08
2012-7-26,97,83,72,71,59,44,90,50,17,29.85,29.68,9,3,12,0.12
2012-7-27,88,76,64,55,52,48,68,44,29,30.00,29.85,6,2,12,0.00
2012-7-28,88,78,68,56,54,50,64,45,30,30.06,29.85,11,5,17,0.00
2012-7-29,100,84,71,63,55,48,60,39,20,29.88,29.83,7,3,10,0.00
2012-7-30,99,84,74,68,58,43,80,48,16,29.91,29.80,7,2,10,0.00
2012-7-31,99,84,69,64,58,48,78,45,18,29.91,29.85,6,2,8,0.00
2012-8-1,99,85,72,64,56,48,61,40,18,29.88,29.74,8,3,13,0.00
2012-8-2,96,83,70,66,59,54,85,47,26,29.83,29.74,8,2,13,0.00
2012-8-3,97,84,73,64,59,52,70,46,22,29.83,29.62,8,3,14,0.00
2012-8-4,82,75,66,66,53,44,71,49,28,29.97,29.65,15,3,27,0.00
2012-8-5,86,73,59,54,48,43,77,44,25,30.21,29.97,7,2,11,0.00
2012-8-6,97,80,64,51,46,41,56,34,16,30.06,29.85,10,4,17,0.00
2012-8-7,101,84,69,60,50,44,59,32,17,29.91,29.77,11,3,18,0.00
2012-8-8,95,79,70,62,57,52,70,49,27,29.88,29.74,11,2,15,0.40
2012-8-9,86,75,65,63,54,46,86,53,28,29.97,29.85,7,3,12,0.00
2012-8-10,81,70,58,52,47,42,80,47,29,30.06,29.94,6,2,8,0.00
2012-8-11,82,69,56,55,48,44,82,50,30,30.03,29.85,7,2,12,0.00
2012-8-12,83,72,66,57,53,47,75,53,34,29.88,29.77,9,4,15,0.00
2012-8-13,81,69,61,61,51,42,88,58,29,30.06,29.85,7,3,13,0.00
2012-8-14,86,72,58,56,50,45,75,48,29,29.97,29.77,10,4,15,0.00
2012-8-15,93,77,60,61,54,50,82,50,27,29.83,29.62,14,5,20,0.00
2012-8-16,78,69,59,60,44,34,61,42,24,30.03,29.71,9,4,21,0.00
2012-8-17,81,66,52,45,38,30,68,39,20,30.09,29.94,7,1,10,0.00
2012-8-18,70,60,53,54,43,34,82,55,36,30.03,29.88,10,2,14,0.04
2012-8-19,81,65,49,54,44,37,95,54,23,30.06,29.91,6,1,9,0.00
2012-8-20,89,72,54,50,42,38,75,40,18,29.97,29.85,8,2,10,0.00
2012-8-21,93,77,62,48,44,39,54,34,17,29.97,29.85,7,3,10,0.00
2012-8-22,93,78,62,52,44,39,53,32,18,29.94,29.83,15,4,20,0.00
2012-8-23,91,80,68,55,48,38,45,33,24,29.88,29.77,16,6,24,0.00
2012-8-24,78,71,67,66,61,54,90,72,45,29.85,29.80,10,4,16,0.09
2012-8-25,72,70,67,69,64,57,92,84,69,29.85,29.74,10,4,14,0.23
2012-8-26,85,73,70,68,66,56,88,80,39,30.03,29.83,4,1,6,0.00
2012-8-27,93,77,63,67,58,48,95,56,22,30.12,29.97,8,2,12,0.00
2012-8-28,96,81,69,58,49,40,64,37,16,30.06,29.85,11,5,17,0.00
2012-8-29,98,83,68,52,46,40,50,30,16,29.91,29.77,14,6,21,0.00
2012-8-30,100,84,70,52,47,41,51,30,16,29.88,29.77,12,5,22,0.00
2012-8-31,96,80,65,62,53,45,67,42,18,29.94,29.85,7,2,10,0.00
2012-9-1,93,79,68,66,59,52,85,54,27,29.94,29.85,6,2,10,0.00
2012-9-2,94,79,63,59,54,48,70,45,26,29.94,29.80,7,3,10,0.00
2012-9-3,84,78,70,68,63,59,78,61,46,29.88,29.77,8,2,13,0.00
2012-9-4,100,82,68,68,59,46,92,53,18,29.83,29.65,11,3,15,0.00
2012-9-5,89,76,66,53,43,31,53,33,18,29.88,29.65,8,3,15,0.00
2012-9-6,91,74,55,58,42,31,65,34,19,29.94,29.68,11,3,15,0.00
2012-9-7,76,67,60,60,46,34,69,48,26,30.06,29.68,9,4,15,0.00
2012-9-8,86,67,48,40,36,30,75,37,16,30.12,29.85,10,3,15,0.00
2012-9-9,76,64,49,41,37,31,64,37,23,30.18,30.00,6,2,8,0.00
2012-9-10,88,70,55,43,40,36,60,36,19,30.06,29.80,14,6,21,0.00
2012-9-11,95,78,60,44,41,36,56,30,14,29.85,29.74,15,6,21,0.00
2012-9-12,78,67,55,53,46,36,94,51,24,30.21,29.80,10,4,18,1.17
2012-9-13,69,58,50,52,44,38,93,63,33,30.36,30.18,6,2,10,0.73
2012-9-14,80,63,49,46,39,32,87,48,20,30.33,30.18,10,4,14,0.00
2012-9-15,79,64,49,56,43,34,75,47,30,30.21,29.97,9,3,13,0.00
2012-9-16,76,62,57,60,57,48,98,84,38,30.00,29.83,9,4,11,0.00
2012-9-17,68,59,53,60,46,29,96,65,26,30.00,29.83,9,2,15,0.20
2012-9-18,71,57,40,38,33,28,84,45,22,30.09,29.85,7,2,10,0.00
2012-9-19,91,67,50,44,35,21,71,35,14,29.94,29.71,11,4,18,0.00
2012-9-20,74,62,50,36,31,23,49,32,22,30.00,29.85,7,2,10,0.00
2012-9-21,76,64,54,38,32,25,47,31,18,29.88,29.74,11,4,19,0.00
2012-9-22,66,54,39,32,25,18,55,34,20,30.24,29.88,8,3,13,0.00
2012-9-23,69,56,38,30,27,23,61,36,22,30.30,30.09,6,2,7,0.00
2012-9-24,73,60,47,44,34,26,55,38,24,30.12,29.77,7,2,13,0.00
2012-9-25,85,67,51,47,41,33,75,45,19,29.85,29.74,5,1,8,0.00
2012-9-26,78,63,53,36,31,22,45,30,18,30.06,29.80,5,2,7,0.00
2012-9-27,78,59,43,35,27,20,61,32,15,30.21,30.03,4,0,6,0.00
2012-9-28,75,57,42,40,33,26,69,43,21,30.15,30.03,3,0,5,0.00
2012-9-29,79,61,44,43,37,30,81,45,21,30.12,29.97,4,0,7,0.00
2012-9-30,80,63,50,43,37,32,67,40,20,30.00,29.85,6,0,7,0.00
2012-10-1,73,62,50,44,36,29,61,39,25,29.97,29.83,9,3,14,0.00
2012-10-2,76,58,42,36,28,20,58,34,16,29.97,29.80,5,1,7,0.00
2012-10-3,81,63,42,35,27,19,51,28,15,29.85,29.71,14,4,19,0.00
2012-10-4,63,49,45,42,30,22,73,48,29,30.24,29.85,9,4,17,0.04
2012-10-5,54,42,35,25,21,15,64,44,26,30.30,30.15,7,2,12,0.00
2012-10-6,49,40,30,21,17,13,53,40,31,30.33,30.21,8,3,12,0.00
2012-10-7,58,42,24,26,19,14,76,44,25,30.24,29.97,13,4,18,0.00
2012-10-8,71,55,40,30,27,22,60,37,19,29.97,29.74,14,6,20,0.00
2012-10-9,56,50,37,39,24,16,66,37,26,30.09,29.74,9,3,17,0.00
2012-10-10,64,47,30,27,21,16,59,38,24,30.18,29.97,10,3,14,0.00
2012-10-11,67,53,44,32,24,18,46,33,24,30.30,29.91,9,4,14,0.00
2012-10-12,55,48,36,41,21,13,65,36,26,30.33,29.94,9,4,14,0.00
2012-10-13,73,63,52,64,56,41,98,79,54,29.97,29.53,11,4,17,0.40
2012-10-14,67,58,49,63,39,28,96,53,24,29.94,29.50,11,4,17,0.40
2012-10-15,74,58,42,40,35,30,74,45,23,29.94,29.71,8,3,11,0.00
2012-10-16,81,64,51,45,39,32,75,43,20,29.74,29.35,9,3,12,0.00
2012-10-17,67,59,51,49,31,16,81,36,22,29.56,29.29,14,6,21,0.00
2012-10-18,51,48,44,39,26,16,81,47,26,29.62,29.47,16,9,29,0.13
2012-10-19,48,45,40,38,36,32,84,70,55,29.80,29.59,15,6,21,0.08
2012-10-20,66,50,34,43,35,31,98,62,29,29.80,29.62,9,3,15,0.00
2012-10-21,80,62,48,60,47,34,78,58,36,29.74,29.65,10,4,14,0.04
2012-10-22,67,60,55,63,54,49,95,79,65,29.80,29.68,6,2,8,0.04
2012-10-23,76,60,53,60,55,52,98,84,48,29.77,29.62,8,2,10,0.00
2012-10-24,58,54,45,57,53,44,98,96,86,29.74,29.68,7,3,12,0.04
2012-10-25,45,38,34,44,29,18,97,72,48,30.30,29.62,16,5,24,0.96
2012-10-26,45,36,30,23,19,16,73,50,38,30.48,30.27,7,3,13,0.00
2012-10-27,47,36,25,23,18,13,76,50,36,30.39,30.18,6,2,8,0.00
2012-10-28,52,43,34,26,22,19,59,44,33,30.27,30.15,9,4,14,0.00
2012-10-29,58,48,42,27,23,20,45,38,28,30.18,30.03,13,6,17,0.00
2012-10-30,55,44,37,26,22,19,55,44,29,30.09,29.97,7,3,12,0.00
2012-10-31,61,45,32,30,24,19,65,45,27,30.06,29.91,6,1,8,0.00
2012-11-1,57,48,38,36,31,27,77,54,38,29.97,29.85,7,2,12,0.00
2012-11-2,54,44,38,32,24,22,76,47,31,30.06,29.85,9,3,15,0.00
2012-11-3,58,41,28,30,26,23,81,57,32,30.18,30.03,4,1,8,0.00
2012-11-4,60,48,39,45,33,26,97,59,34,30.15,29.91,10,3,15,0.08
2012-11-5,46,41,39,45,38,33,97,88,75,30.12,29.97,8,3,13,0.00
2012-11-6,58,46,38,36,27,21,87,52,26,30.03,29.88,13,5,20,0.00
2012-11-7,55,43,32,28,24,21,78,50,32,30.15,29.97,6,2,8,0.00
2012-11-8,67,50,39,31,27,23,58,42,24,29.97,29.80,10,4,14,0.00
2012-11-9,65,54,40,53,40,30,76,60,43,29.83,29.59,9,3,10,0.00
2012-11-10,77,65,44,54,48,38,89,56,33,29.65,29.41,18,8,30,0.16
2012-11-11,43,29,24,38,15,5,93,56,34,30.12,29.62,11,6,18,0.15
2012-11-12,42,29,21,12,9,6,57,43,29,30.30,30.12,12,4,17,0.00
2012-11-13,56,40,24,24,16,7,52,39,23,30.33,30.15,9,4,14,0.00
2012-11-14,59,46,32,24,20,16,56,38,24,30.27,30.09,10,4,13,0.00
2012-11-15,62,47,36,29,24,20,57,40,26,30.36,30.12,6,2,8,0.00
2012-11-16,57,42,26,29,23,15,71,50,32,30.42,30.21,7,3,12,0.00
2012-11-17,62,49,38,29,27,23,66,44,27,30.27,30.09,14,6,19,0.00
2012-11-18,61,54,42,31,26,20,42,34,26,30.12,29.97,10,6,16,0.16
2012-11-19,63,50,42,34,30,27,67,47,33,30.06,29.91,8,3,11,0.00
2012-11-20,64,47,33,33,28,22,84,50,24,30.18,30.03,5,2,7,0.00
2012-11-21,72,58,44,39,33,27,56,41,24,30.09,29.77,17,7,24,0.00
2012-11-22,62,52,39,40,32,22,69,47,34,30.18,29.68,12,5,21,0.00
2012-11-23,41,28,20,22,6,0,48,38,30,30.44,30.18,16,5,23,0.00
2012-11-24,46,33,20,18,10,1,53,38,29,30.36,29.83,11,4,16,0.00
2012-11-25,40,36,33,21,19,16,60,50,39,30.09,29.83,4,2,6,0.00
2012-11-26,35,29,16,23,13,3,76,52,40,30.36,30.09,7,2,10,0.00
2012-11-27,44,27,13,22,13,3,74,56,36,30.39,30.09,13,3,17,0.00
2012-11-28,48,35,21,26,19,15,85,55,30,30.33,30.00,9,3,12,0.00
2012-11-29,56,42,30,30,25,18,76,53,36,30.00,29.85,7,2,10,0.00
2012-11-30,50,38,29,28,23,20,72,56,41,30.03,29.85,7,2,10,0.00
2012-12-1,57,47,36,55,44,26,98,88,67,29.88,29.68,6,2,9,0.00
2012-12-2,62,46,33,48,39,33,98,78,39,29.97,29.71,7,3,12,0.00
2012-12-3,63,50,37,49,35,15,98,62,26,30.06,29.59,10,3,20,0.00
2012-12-4,63,43,31,25,18,14,50,37,21,30.24,30.06,6,2,7,0.00
2012-12-5,60,44,32,25,20,16,61,40,22,30.24,29.85,12,6,19,0.00
2012-12-6,49,46,39,25,21,18,44,37,29,29.97,29.83,11,4,17,0.00
2012-12-7,46,37,30,26,19,15,76,48,32,29.97,29.83,6,2,9,0.00
2012-12-8,38,34,30,28,24,21,88,67,50,29.97,29.80,7,3,11,0.00
2012-12-9,37,26,14,34,11,-3,90,56,41,30.09,29.80,14,6,20,0.00
2012-12-10,30,17,5,2,-4,-12,46,39,28,30.09,29.85,10,4,14,0.00
2012-12-11,46,32,18,16,10,-2,67,40,28,30.03,29.88,12,4,15,0.00
2012-12-12,53,40,30,16,10,7,41,30,21,29.97,29.85,16,7,21,0.00
2012-12-13,56,39,29,21,13,7,46,34,25,30.03,29.91,9,2,12,0.00
2012-12-14,54,40,24,37,21,9,72,48,35,30.00,29.53,12,4,15,0.05
2012-12-15,46,42,34,45,39,27,98,89,71,29.71,29.38,10,4,18,0.70
2012-12-16,34,32,30,29,26,23,85,79,71,29.80,29.65,5,2,8,0.00
2012-12-17,30,28,27,27,24,21,95,85,77,29.80,29.59,8,3,11,0.00
2012-12-18,46,34,28,28,25,21,97,71,47,29.83,29.47,11,3,20,0.00
2012-12-19,37,32,28,32,29,24,98,88,70,29.88,29.71,7,2,10,0.04
2012-12-20,28,20,15,27,15,6,98,81,63,30.18,29.74,10,3,15,0.00
2012-12-21,31,19,9,23,11,-1,80,70,54,30.27,30.09,5,2,7,0.00
2012-12-22,36,24,17,20,14,10,80,68,46,30.09,29.85,5,2,9,0.04
2012-12-23,23,16,9,10,5,1,71,63,46,30.00,29.88,5,2,7,0.00
2012-12-24,19,14,8,8,3,-1,75,62,48,30.21,29.97,8,3,12,0.00
2012-12-25,12,7,1,1,-4,-10,60,60,60,30.44,30.21,7,4,13,0.00
2012-12-26,21,9,0,2,-5,-10,60,53,41,30.33,30.09,5,2,7,0.00
2012-12-27,23,19,9,16,9,-6,78,67,48,30.12,29.91,7,3,10,0.00
2012-12-28,24,20,15,16,12,6,82,72,55,30.09,29.91,8,3,13,0.00
2012-12-29,23,16,5,10,6,-1,74,65,50,30.18,30.09,7,4,9,0.00
2012-12-30,41,27,16,20,13,7,74,56,39,30.21,29.88,13,5,20,0.13
2012-12-31,24,20,15,14,10,5,80,64,53,30.21,30.06,7,2,12,0.00
2013-1-1,20,12,3,8,1,-7,70,59,44,30.27,30.06,6,3,9,0.00